{"data":{"norad_id":47393,"epoch":"2026-06-15T00:32:35.952576Z","epoch_age_seconds":8449164,"freshness":"OLD","line1":"1 47393U 21005AW  26166.02263834  .13117879  12537-4  32676-3 0  9999","line2":"2 47393  53.0120 213.3904 0004173 278.4944  81.5632 16.45882232299549","mean_motion":16.45882232,"eccentricity":0.0004173,"inclination_deg":53.012,"raan_deg":213.3904,"arg_perigee_deg":278.4944,"mean_anomaly_deg":81.5632,"bstar":0.00032676,"rev_number":29954,"period_min":87.491071475398,"perigee_km":147.47730255647,"apogee_km":152.92585393387,"semimajor_km":6528.3385782452,"source":"CELESTRAK","updated_at":"2026-06-15T09:01:40.353469Z"}}